IRIDIUM 33 DEB, 34693

Orbit data source: Space-Track

IRIDIUM 33 DEB, 34693 is space debris in LEO originally from a launch on Sun, 14 Sep 1997 UTC launched from the Tyuratam Missile And Space Complex (TTMTR). The debris from Iridium 33, an American commercial communications satellite, has been tracked extensively since its accidental collision with the defunct Russian satellite Cosmos 2251 in 2009. This event, occurring at high speed in low Earth orbit (LEO), generated thousands of pieces of space debris, significantly increasing the risk of further collisions. The Iridium 33 debris cloud has impacted space traffic management and orbital debris mitigation strategies, making it a subject of ongoing study in space situational awareness.

Not visible in the next 10 days
Identifier
34693, 1997-051KQ
Orbit
LEO
Country
Flag of USUS
Related business
Manufacturer
Unknown
Mission
Spacecraft
Bus & Motor
Unknown
Mass
Unknown
Launch date (UTC)
1997-09-14 (28 years ago)
Launch vehicle
Unknown
Launch site
Tyuratam Missile And Space Complex (TTMTR)
Object type
Payload
Rocket body
Debris
Shape & HBR
Unknown shape, 0.1 m
Radar Cross Section
Small (<0.1 m²)

Expand to show TLE details & history
Last TLE update: 1 week ago

TLE from 1 week ago
0 IRIDIUM 33 DEB
1 34693U 97051KQ  26055.99059176  .01322234  00000-0  68577-2 0  9993
2 34693  86.2833 265.9163 0003939  44.5223 315.6368 15.78525000900614
Epoch: 2026-02-24T23:46Z
TLE epoch observation values (Epoch: 2026-02-24T23:46:27.128Z)
Latitude
0.00005°
Longitude
114.44108°
Altitude
335.98 km
Speed
7.708 km/s
True Right ascension
17h 43m 39s
True Declination
0° 00' 00"
Sunlit
Object was in daylight at epoch
Visualization orbit readout
Latitude
Unknown
Longitude
Unknown
Altitude
Unknown
Speed
Unknown
Apparent Right ascension
Unknown
Apparent Declination
Unknown
Sunlit
N/A
Visualization observer readout
Local Sidereal Time
19:03:42
Azimuth
Unknown
Elevation
Unknown
Doppler factor
Unknown
Orbital elements
Apogee altitude
334.028 km
Perigee altitude
328.742 km
Semi-major axis
6,709.522 km
Eccentricity
0.00039
Inclination
86.2833°
RAAN
265.9163°
Arg. of periapsis
44.5223°
True anomaly
315.60523°
Mean anomaly
315.6368°
Eccentric anomaly
315.62102°
Mean motion
3.94917 °/min
Orbital period
91.16 mins
BSTAR
0.0068577
Loading maneuver chart data...
Computing Atmospheric mass density...
Loading historical data...
Loading historical data...
Loading historical data...
Loading historical data...
Loading historical data...
Loading historical data...
Loading historical data...

Documentation

Showing up to 5 results
|